Flight Information

DEPARTURE
FLAGSTAFF, AZ
Elevation:
7014
Runways:
3/21 - 8800x150 - ASPH-E
ATIS:
125.8
Ground:
121.9
Tower:
FLAGSTAFF TOWER 134.55
DESTINATION
,
Elevation:
TPA:
1000 (est.)


6454.2 NM77° True-13° Var63° HDG

Flight Plan:
(click to file on line)

1. Type
2. Aircraft Identification
3. Aircraft Type / Special Equipment
4. True Airspeed
kts
5. Departure Airport
(ICAO code)
6. Arriving Airport
(ICAO code)
7. Cruising Altitude
ft
8. Alternate Airport
(ICAO code)
9. Route of Flight
10. Remarks


00:00:00 Departure ATIS: Destination ATIS:

Clearance Limit:
Route:
Altitude: Expect in minutes
Frequency:
Transponder: (7500 Hijack / 7600 Lost Comms / 7700 Emergency)


KFLG 282157Z 06016G22KT 10SM CLR 03/M13 A3043 RMK AO2 SLP302 T00331128
Time: 2022-01-28T21:57:00Z
1643409036
Winds: 60 @ 16 kts
Gusting:22 kts
Visibility: 10.0 sm
Clouds (AGL): CLR
Temperature: 3.3 C
Dew Point: -12.8 C
Pressure: 30.431103 in Hgbr


Notes:

Data extracted from FAA Digital Chart Supplement. Effective: 0901Z Thursday, DEC 2, 2021 to 0901Z Thursday, JAN 27, 2022
Current ATIS data is provided courtisy of PilotEdge.